Weather History for Louisburg, NC

Change the Weather History Date:

Monday, October 21, 2013

  Actual Average (KRDU) Record (KRDU)
Temperature  
Mean Temperature 53 °F 60 °F  
Max Temperature 69 °F 71 °F 84 °F (1979)
Min Temperature 37 °F 48 °F 26 °F (1974)
Degree Days  
Heating Degree Days 12 7  
Month to date heating degree days 90  
Since 1 July heating degree days 111  
Cooling Degree Days 0 1  
Month to date cooling degree days 43  
Year to date cooling degree days 1711  
Growing Degree Days 3 (Base 50)    
Moisture  
Dew Point 44 °F    
Average Humidity 76    
Maximum Humidity 94    
Minimum Humidity 35    
Precipitation  
Precipitation 0.00 in 0.11 in 2.22 in (1904)
Month to date precipitation 2.25  
Year to date precipitation 36.15  
Sea Level Pressure  
Sea Level Pressure 30.11 in    
Wind  
Wind Speed 0 mph (SE)    
Max Wind Speed 5 mph    
Max Gust Speed -    
Visibility 8 miles    
Events      
T = Trace of Precipitation, MM = Missing Value Source: NWS Daily Summary

Daily Weather History Graph

Daily Weather History Graph

Search for Another Location

Airport:

Trip Planner

Search our weather history database for the weather conditions in past years. The results will help you decide how hot, cold, wet, or windy it might be!

Date:

Astronomy

Oct. 21, 2013 Rise Set
Actual Time 7:25 AM EDT 6:29 PM EDT
Civil Twilight 6:59 AM EDT 6:55 PM EDT
Nautical Twilight 6:29 AM EDT 7:25 PM EDT
Astronomical Twilight 6:00 AM EDT 7:55 PM EDT
Moon 8:25 PM EDT (10/21) 9:54 AM EDT (10/21)
Length of Visible Light 11h 55m
Length of Day
11h 03m
Waning Gibbous, 93% of the Moon is Illuminated
Oct 21
Waning Gibbous
Oct 26
Last Quarter
Nov 3
New
Nov 10
First Quarter
Nov 17
Full

Hourly Weather History & Observations

Time (EDT) Temp. Dew Point Humidity Pressure Visibility Wind Dir Wind Speed Gust Speed Precip Events Conditions
12:15 AM 44.6 °F 42.8 °F 93% 30.14 in 7.0 mi Calm Calm - N/A   Clear
12:35 AM 44.6 °F 41.0 °F 87% 30.14 in 7.0 mi Calm Calm - N/A   Clear
12:55 AM 42.8 °F 41.0 °F 93% 30.14 in 7.0 mi Calm Calm - N/A   Clear
1:15 AM 42.8 °F 41.0 °F 93% 30.13 in 7.0 mi Calm Calm - N/A   Clear
1:35 AM 42.8 °F 41.0 °F 93% 30.13 in 7.0 mi Calm Calm - N/A   Clear
1:55 AM 42.8 °F 41.0 °F 93% 30.14 in 7.0 mi Calm Calm - N/A   Clear
2:15 AM 42.8 °F 41.0 °F 93% 30.13 in 5.0 mi Calm Calm - N/A   Clear
2:35 AM 42.8 °F 39.2 °F 87% 30.13 in 7.0 mi Calm Calm - N/A   Clear
2:55 AM 42.8 °F 39.2 °F 87% 30.13 in 5.0 mi Calm Calm - N/A   Clear
3:15 AM 41.0 °F 39.2 °F 93% 30.13 in 5.0 mi Calm Calm - N/A   Clear
3:35 AM 41.0 °F 39.2 °F 93% 30.13 in 5.0 mi Calm Calm - N/A   Clear
3:55 AM 41.0 °F 37.4 °F 87% 30.13 in 7.0 mi Calm Calm - N/A   Clear
4:15 AM 41.0 °F 37.4 °F 87% 30.13 in 7.0 mi Calm Calm - N/A   Clear
4:35 AM 41.0 °F 37.4 °F 87% 30.13 in 5.0 mi Calm Calm - N/A   Clear
4:55 AM 41.0 °F 37.4 °F 87% 30.13 in 5.0 mi Calm Calm - N/A   Clear
5:15 AM 39.2 °F 37.4 °F 93% 30.13 in 5.0 mi Calm Calm - N/A   Clear
5:35 AM 39.2 °F 37.4 °F 93% 30.13 in 5.0 mi Calm Calm - N/A   Clear
5:55 AM 39.2 °F 37.4 °F 93% 30.14 in 7.0 mi Calm Calm - N/A   Clear
6:15 AM 39.2 °F 37.4 °F 93% 30.14 in 5.0 mi Calm Calm - N/A   Clear
6:35 AM 39.2 °F 35.6 °F 87% 30.15 in 7.0 mi Calm Calm - N/A   Clear
6:55 AM 37.4 °F 35.6 °F 93% 30.15 in 7.0 mi Calm Calm - N/A   Clear
7:15 AM 37.4 °F 35.6 °F 93% 30.16 in 7.0 mi Calm Calm - N/A   Clear
7:35 AM 37.4 °F 35.6 °F 93% 30.16 in 5.0 mi Calm Calm - N/A   Clear
7:55 AM 41.0 °F 37.4 °F 87% 30.17 in 5.0 mi Calm Calm - N/A   Clear
8:15 AM 42.8 °F 39.2 °F 87% 30.17 in 5.0 mi Calm Calm - N/A   Clear
8:35 AM 44.6 °F 42.8 °F 93% 30.18 in 7.0 mi Calm Calm - N/A   Clear
8:55 AM 46.4 °F 44.6 °F 93% 30.18 in 7.0 mi Calm Calm - N/A   Clear
9:15 AM 50.0 °F 46.4 °F 87% 30.18 in 7.0 mi Calm Calm - N/A   Clear
9:35 AM 53.6 °F 48.2 °F 82% 30.18 in 7.0 mi Calm Calm - N/A   Clear
9:55 AM 55.4 °F 48.2 °F 77% 30.18 in 10.0 mi Calm Calm - N/A   Clear
10:15 AM 57.2 °F 50.0 °F 77% 30.18 in 10.0 mi ESE 3.5 mph - N/A   Clear
10:35 AM 59.0 °F 50.0 °F 72% 30.17 in 10.0 mi Calm Calm - N/A   Clear
10:55 AM 60.8 °F 50.0 °F 68% 30.17 in 10.0 mi Calm Calm - N/A   Clear
11:15 AM 60.8 °F 50.0 °F 68% 30.17 in 10.0 mi Calm Calm - N/A   Clear
11:35 AM 62.6 °F 46.4 °F 55% 30.17 in 10.0 mi Calm Calm - N/A   Clear
11:55 AM 64.4 °F 44.6 °F 49% 30.16 in 10.0 mi East 3.5 mph - N/A   Clear
12:15 PM 64.4 °F 44.6 °F 49% 30.16 in 10.0 mi Calm Calm - N/A   Clear
12:35 PM 64.4 °F 46.4 °F 52% 30.16 in 10.0 mi Calm Calm - N/A   Clear
12:55 PM 64.4 °F 42.8 °F 45% 30.15 in 10.0 mi Calm Calm - N/A   Clear
1:15 PM 64.4 °F 44.6 °F 49% 30.15 in 10.0 mi Calm Calm - N/A   Clear
1:35 PM 66.2 °F 42.8 °F 43% 30.13 in 10.0 mi Calm Calm - N/A   Clear
1:55 PM 66.2 °F 42.8 °F 43% 30.12 in 10.0 mi Calm Calm - N/A   Clear
2:15 PM 68.0 °F 42.8 °F 40% 30.11 in 10.0 mi South 4.6 mph - N/A   Clear
2:35 PM 69.8 °F 41.0 °F 35% 30.09 in 10.0 mi Calm Calm - N/A   Clear
2:55 PM 68.0 °F 41.0 °F 37% 30.09 in 10.0 mi SSE 4.6 mph - N/A   Clear
3:15 PM 68.0 °F 41.0 °F 37% 30.08 in 10.0 mi Calm Calm - N/A   Clear
3:35 PM 68.0 °F 42.8 °F 40% 30.07 in 10.0 mi Calm Calm - N/A   Clear
3:55 PM 68.0 °F 41.0 °F 37% 30.07 in 10.0 mi Calm Calm - N/A   Clear
4:15 PM 68.0 °F 41.0 °F 37% 30.06 in 10.0 mi Calm Calm - N/A   Clear
4:35 PM 68.0 °F 42.8 °F 40% 30.06 in 10.0 mi Calm Calm - N/A   Clear
4:55 PM 68.0 °F 44.6 °F 43% 30.06 in 10.0 mi Calm Calm - N/A   Clear
5:15 PM 66.2 °F 44.6 °F 46% 30.06 in 10.0 mi SSE 3.5 mph - N/A   Clear
5:35 PM 64.4 °F 50.0 °F 59% 30.05 in 10.0 mi Calm Calm - N/A   Clear
5:55 PM 60.8 °F 51.8 °F 72% 30.06 in 10.0 mi Calm Calm - N/A   Clear
6:15 PM 59.0 °F 51.8 °F 77% 30.05 in 10.0 mi Calm Calm - N/A   Clear
6:35 PM 57.2 °F 51.8 °F 82% 30.05 in 10.0 mi Calm Calm - N/A   Clear
6:55 PM 55.4 °F 50.0 °F 82% 30.06 in 10.0 mi Calm Calm - N/A   Clear
7:15 PM 55.4 °F 50.0 °F 82% 30.05 in 10.0 mi Calm Calm - N/A   Clear
7:35 PM 53.6 °F 50.0 °F 88% 30.06 in 10.0 mi Calm Calm - N/A   Clear
7:55 PM 53.6 °F 50.0 °F 88% 30.05 in 10.0 mi Calm Calm - N/A   Clear
8:15 PM 53.6 °F 50.0 °F 88% 30.06 in 10.0 mi Calm Calm - N/A   Clear
8:35 PM 53.6 °F 50.0 °F 88% 30.05 in 10.0 mi Calm Calm - N/A   Clear
8:55 PM 53.6 °F 50.0 °F 88% 30.05 in 10.0 mi Calm Calm - N/A   Clear
9:15 PM 53.6 °F 50.0 °F 88% 30.05 in 10.0 mi Calm Calm - N/A   Clear
9:35 PM 53.6 °F 50.0 °F 88% 30.06 in 10.0 mi Calm Calm - N/A   Clear
9:55 PM 53.6 °F 50.0 °F 88% 30.06 in 10.0 mi Calm Calm - N/A   Clear
10:15 PM 53.6 °F 50.0 °F 88% 30.05 in 10.0 mi Calm Calm - N/A   Clear
10:35 PM 53.6 °F 50.0 °F 88% 30.05 in 10.0 mi Calm Calm - N/A   Clear
10:55 PM 53.6 °F 50.0 °F 88% 30.04 in 10.0 mi Calm Calm - N/A   Clear
11:15 PM 51.8 °F 50.0 °F 94% 30.05 in 7.0 mi Calm Calm - N/A   Clear
11:35 PM 51.8 °F 50.0 °F 94% 30.03 in 7.0 mi Calm Calm - N/A   Clear
11:55 PM 51.8 °F 48.2 °F 88% 30.03 in 7.0 mi Calm Calm - N/A   Clear